Regional Weather Roundup
Issued by NWS Goodland, KS

Home | Current Version | Previous Version | Text Only | Print | Product List | Glossary On
Versions: 1 2 3 4 5 6 7 8 9 10 11 12 13 14 15 16 17 18 19 20 21 22 23 24 25 26 27 28 29 30 31 32 33 34 35 36 37 38 39 40 41 42 43 44 45 46 47 48 49 50
000
ASUS43 KGLD 310608
RWRGLD

GOODLAND FORECAST AREA HOURLY WEATHER ROUNDUP
NATIONAL WEATHER SERVICE GOODLAND KS
1200 AM MDT FRI OCT 31 2014

...OFFICIAL OBSERVATIONS...

CITY           SKY/WX    TMP DP  RH WIND       PRES   REMARKS
GOODLAND KS    CLEAR     36  29  75 CALM      30.44R
HILL CITY KS   CLEAR     42  33  70 NE17      30.42R
IMPERIAL NEB   CLEAR     32  26  78 NE6       30.45R
MCCOOK NEB     CLEAR     37  30  75 NE8       30.45R
AKRON CO       CLEAR     36  28  73 E12       30.42S
BURLINGTON CO  CLEAR     37  26  64 E10       30.42S
LIMON CO       CLEAR     30  23  75 CALM      30.44S
$$

...UNOFFICIAL OBSERVATIONS...

CITY           SKY/WX    TMP DP  RH WIND       PRES   REMARKS
COLBY KS       CLEAR     37  34  87 N9        30.43S
NORTON KS      CLEAR     37  28  70 N15       30.42R
SHARON SPRINGS   N/A     40  31  71 NE10        N/A
TRIBUNE KS     CLEAR     39  34  81 NE8       30.43R
TRENTON NEB      N/A     36  32  85 NE9         N/A
YUMA CO          N/A     39  28  66 CALM        N/A
$$



USA.gov is the U.S. government's official web portal to all federal, state and local government web resources and services.